Location: Ch�tillon
(48.8024°N, 2.2935°E)
Time: 14:53:05
(UTC+00:00)

CAS-4A - Pass Details

Date: 13 July 2022
Orbit: 521 x 536 km, 43.0° (Epoch: 19 August)

Event Time Altitude Azimuth Distance (km) Brightness Sun altitude
Rises 23:11:42 0° 260° (W) 2,642 ? -18.8°
Reaches altitude 10° 23:14:03 10° 252° (WSW) 1,753 ? -18.8°
Enters shadow 23:15:31 20° 239° (WSW) 1,255 ? -18.9°
